Flag for China Weather past 2 weeks in Kashgar, Xinjiang, China

Now
64 °F

Partly sunny.


Feels Like: 64 °F
Forecast: 62 / 77 °F
Wind: 1 mph from North

Location: Kashi Airport

Current Time: Sep 5, 2015 at 9:50:09 AM

Latest Report: Sep 5, 2015 at 9:00 AM


Visibility: N/A

Pressure: 30.07 "Hg (25.82 "Hg at 1298m altitude)

Humidity: 60%

Dew point: 50 °F

Location of KashgarLocation

Historic Weather in Kashgar — Graph

°F

Kashgar temperature yesterday

Maximum temperature yesterday: 84 °F (at 5:00 PM)
Minimum temperature yesterday: 64 °F (at 8:00 AM)
Average temperature yesterday: 74 °F

Past Weeks' High & Low Weather Summary

 TemperatureHumidityPressure
High91 °F (Aug 21, 5:00 PM)88% (Sep 1, 9:00 AM)30.09 "Hg (Sep 1, 9:00 AM)
Low54 °F (Sep 1, 8:00 AM)8% (Aug 26, 9:00 PM)29.65 "Hg (Aug 22, 6:00 PM)
Average75 °F33%29.91 "Hg
* Reported Aug 21 8:00 AM — Sep 5 8:00 AM, Kashgar, Weather by CustomWeather, © 2015

Note: Actual official high and low records may vary slightly from our data, if they occured in-between our weather recording intervals... More about our weather records

Advertising

Kashgar weather history for previous 24 hours

 ConditionsComfort  
Time TempWeatherWind HumidityBarometerVisibility
8:00 AM
Sat, Sep 5
66 °FThunderstorms. Passing clouds.3 mph56%30.07 "HgN/A
7:00 AM68 °FThunderstorms. Passing clouds.8 mph49%30.04 "HgN/A
6:00 AM70 °FPassing clouds.6 mph40%30.04 "HgN/A
5:00 AM68 °FPassing clouds.3 mph56%30.01 "HgN/A
4:00 AM72 °FThunderstorms. Passing clouds.No wind41%30.01 "HgN/A
3:00 AM72 °FPassing clouds.6 mph41%30.01 "HgN/A
2:00 AM72 °FSandstorm.8 mph41%30.01 "HgN/A
1:00 AM72 °FClear.6 mph41%30.01 "Hg10 mi
12:00 AM73 °FClear.6 mph36%30.01 "Hg10 mi
11:00 PM
Fri, Sep 4
77 °FThunderstorms. Passing clouds.6 mph32%30.01 "HgN/A
10:00 PM77 °FThunderstorms. Passing clouds.6 mph34%30.01 "HgN/A
9:00 PM79 °FPassing clouds.3 mph30%29.98 "HgN/A
8:00 PM79 °FPassing clouds.6 mph30%29.98 "HgN/A
7:00 PM82 °FPassing clouds.8 mph26%29.98 "HgN/A
6:00 PM84 °FPassing clouds.6 mph25%29.98 "HgN/A
5:00 PM84 °FPassing clouds.8 mph23%29.98 "HgN/A
4:00 PM81 °FPassing clouds.8 mph26%30.01 "HgN/A
3:00 PM81 °FSunny.6 mph24%30.04 "Hg10 mi
2:00 PM81 °FPassing clouds.6 mph28%30.07 "HgN/A
1:00 PM77 °FPassing clouds.8 mph34%30.07 "HgN/A
12:00 PM75 °FSunny.3 mph27%30.07 "Hg10 mi
11:00 AM73 °FPassing clouds.3 mph33%30.07 "HgN/A
10:00 AM70 °FSunny.6 mph43%30.07 "Hg10 mi
9:00 AM66 °FSunny.8 mph49%30.04 "Hg10 mi
Weather by CustomWeather, © 2015

See weather overviewHow to use our weather pages